When you browse on this site, cookies collect data to enhance your experience and personalize the content and advertising you see.
Visit our Privacy Policy to learn more. By continuing to use the site, you agree to this use of cookies and data.
  • In United Kingdom
  • List of Countries
  • For 7 days
  • Water Temperature
  • Weather Map
  • Weather Widgets
  • user-avatar
    Login

    Hourly Weather Kitzbuhel

    Today, 2 April, Thursday

    Time Temperature Precipitation Wind Pressure Humidity
    00:00 -3°C° 0 mm 1 mps 674 mmHg 80%
    01:00 -4°C° 0 mm 2 mps 674 mmHg 76%
    02:00 -4°C° 0 mm 2 mps 673 mmHg 75%
    03:00 -4°C° 0 mm 2 mps 673 mmHg 74%
    04:00 -4°C° 0 mm 2 mps 673 mmHg 72%
    05:00 -2°C° 0 mm 1 mps 673 mmHg 70%
    06:00 -1°C° 0 mm 1 mps 673 mmHg 68%
    07:00 0°C° 0 mm 1 mps 673 mmHg 65%
    08:00 +3°C° 0 mm 1 mps 673 mmHg 60%
    09:00 +5°C° 0 mm 1 mps 673 mmHg 55%
    10:00 +7°C° 0 mm 0 mps 673 mmHg 49%
    11:00 +8°C° 0 mm 0 mps 673 mmHg 47%
    12:00 +9°C° 0 mm 0 mps 673 mmHg 45%
    13:00 +11°C° 0 mm 1 mps 673 mmHg 43%
    14:00 +11°C° 0 mm 1 mps 672 mmHg 45%
    15:00 +10°C° 0 mm 1 mps 672 mmHg 47%
    16:00 +10°C° 0 mm 1 mps 671 mmHg 49%
    17:00 +7°C° 0 mm 1 mps 671 mmHg 60%
    18:00 +4°C° 0 mm 1 mps 671 mmHg 71%
    19:00 +1°C° 0 mm 0 mps 670 mmHg 82%
    20:00 +1°C° 0 mm 1 mps 671 mmHg 82%
    21:00 +1°C° 0 mm 1 mps 671 mmHg 81%
    22:00 +1°C° 0 mm 1 mps 671 mmHg 81%
    23:00 +1°C° 0 mm 1 mps 672 mmHg 81%

    Tomorrow, 3 April, Friday

    Time Temperature Precipitation Wind Pressure Humidity
    00:00 0°C° 0 mm 1 mps 672 mmHg 81%
    01:00 0°C° 0 mm 1 mps 672 mmHg 81%
    02:00 0°C° 0 mm 1 mps 672 mmHg 84%
    03:00 0°C° 0 mm 1 mps 672 mmHg 87%
    04:00 0°C° 0 mm 1 mps 672 mmHg 90%
    05:00 +1°C° 0.1 mm 1 mps 673 mmHg 90%
    06:00 +1°C° 0.1 mm 1 mps 673 mmHg 90%
    07:00 +1°C° 0.1 mm 0 mps 674 mmHg 90%
    08:00 +3°C° 0.1 mm 1 mps 674 mmHg 86%
    09:00 +5°C° 0.1 mm 1 mps 674 mmHg 81%
    10:00 +6°C° 0.1 mm 1 mps 674 mmHg 77%
    11:00 +7°C° 0 mm 1 mps 674 mmHg 72%
    12:00 +8°C° 0 mm 1 mps 674 mmHg 68%
    13:00 +9°C° 0 mm 1 mps 674 mmHg 64%
    14:00 +8°C° 0 mm 1 mps 674 mmHg 65%
    15:00 +8°C° 0 mm 1 mps 674 mmHg 66%
    16:00 +8°C° 0 mm 1 mps 674 mmHg 67%
    17:00 +6°C° 0 mm 1 mps 674 mmHg 75%
    18:00 +4°C° 0 mm 1 mps 674 mmHg 83%
    19:00 +2°C° 0 mm 0 mps 675 mmHg 91%
    20:00 +1°C° 0 mm 0 mps 675 mmHg 92%
    21:00 +1°C° 0 mm 0 mps 676 mmHg 92%
    22:00 +1°C° 0 mm 0 mps 676 mmHg 93%
    23:00 0°C° 0 mm 0 mps 676 mmHg 93%

    Day after tomorrow, 4 April, Saturday

    Time Temperature Precipitation Wind Pressure Humidity
    00:00 0°C° 0 mm 0 mps 677 mmHg 93%
    01:00 0°C° 0 mm 0 mps 677 mmHg 94%
    02:00 +1°C° 0 mm 1 mps 677 mmHg 93%
    03:00 +1°C° 0 mm 1 mps 677 mmHg 92%
    04:00 +1°C° 0 mm 1 mps 677 mmHg 90%
    05:00 +1°C° 0 mm 1 mps 678 mmHg 87%
    06:00 +2°C° 0 mm 1 mps 678 mmHg 83%
    07:00 +2°C° 0 mm 1 mps 679 mmHg 79%
    08:00 +5°C° 0 mm 1 mps 679 mmHg 71%
    09:00 +7°C° 0 mm 1 mps 679 mmHg 64%
    10:00 +9°C° 0 mm 1 mps 680 mmHg 56%
    11:00 +10°C° 0 mm 1 mps 680 mmHg 53%
    12:00 +11°C° 0 mm 1 mps 680 mmHg 50%
    13:00 +12°C° 0 mm 1 mps 680 mmHg 48%
    14:00 +12°C° 0 mm 1 mps 680 mmHg 49%
    15:00 +12°C° 0 mm 1 mps 680 mmHg 50%
    16:00 +11°C° 0 mm 1 mps 680 mmHg 51%
    17:00 +9°C° 0 mm 1 mps 679 mmHg 63%
    18:00 +7°C° 0 mm 1 mps 679 mmHg 74%
    19:00 +4°C° 0 mm 1 mps 679 mmHg 85%
    20:00 +4°C° 0 mm 1 mps 680 mmHg 85%
    21:00 +4°C° 0 mm 1 mps 680 mmHg 85%
    22:00 +2°C° 0 mm 2 mps 681 mmHg 85%
    23:00 +2°C° 0 mm 2 mps 681 mmHg 85%

    5 April, Sunday

    Time Temperature Precipitation Wind Pressure Humidity
    00:00 +2°C° 0 mm 2 mps 681 mmHg 85%
    01:00 +2°C° 0 mm 2 mps 681 mmHg 84%
    02:00 +2°C° 0 mm 2 mps 681 mmHg 84%
    03:00 +1°C° 0 mm 2 mps 681 mmHg 83%
    04:00 +1°C° 0 mm 2 mps 681 mmHg 82%
    05:00 +2°C° 0 mm 2 mps 681 mmHg 78%
    06:00 +3°C° 0 mm 2 mps 681 mmHg 74%
    07:00 +3°C° 0 mm 2 mps 682 mmHg 70%
    08:00 +7°C° 0 mm 1 mps 682 mmHg 62%
    09:00 +10°C° 0 mm 1 mps 682 mmHg 53%
    10:00 +13°C° 0 mm 1 mps 683 mmHg 44%
    11:00 +14°C° 0 mm 1 mps 682 mmHg 42%
    12:00 +15°C° 0 mm 1 mps 682 mmHg 39%
    13:00 +16°C° 0 mm 1 mps 682 mmHg 37%
    14:00 +16°C° 0 mm 1 mps 682 mmHg 39%
    15:00 +16°C° 0 mm 1 mps 681 mmHg 41%
    16:00 +16°C° 0 mm 1 mps 681 mmHg 43%
    17:00 +13°C° 0 mm 2 mps 680 mmHg 54%
    18:00 +9°C° 0 mm 2 mps 680 mmHg 64%
    19:00 +7°C° 0 mm 2 mps 680 mmHg 75%
    20:00 +6°C° 0 mm 2 mps 680 mmHg 76%
    21:00 +5°C° 0 mm 2 mps 680 mmHg 77%
    22:00 +3°C° 0 mm 3 mps 681 mmHg 78%
    23:00 +3°C° 0 mm 3 mps 681 mmHg 79%

    6 April, Monday

    Time Temperature Precipitation Wind Pressure Humidity
    00:00 +3°C° 0 mm 3 mps 681 mmHg 80%
    01:00 +3°C° 0 mm 3 mps 681 mmHg 81%
    02:00 +2°C° 0 mm 3 mps 681 mmHg 80%
    03:00 +2°C° 0 mm 3 mps 680 mmHg 79%
    04:00 +2°C° 0 mm 3 mps 680 mmHg 77%
    05:00 +2°C° 0 mm 3 mps 681 mmHg 72%
    06:00 +4°C° 0 mm 2 mps 681 mmHg 67%
    07:00 +5°C° 0 mm 2 mps 681 mmHg 62%
    08:00 +8°C° 0 mm 2 mps 681 mmHg 53%
    09:00 +12°C° 0 mm 1 mps 682 mmHg 45%
    10:00 +15°C° 0 mm 1 mps 682 mmHg 36%
    11:00 +16°C° 0 mm 1 mps 682 mmHg 34%
    12:00 +18°C° 0 mm 1 mps 682 mmHg 32%
    13:00 +19°C° 0 mm 1 mps 682 mmHg 29%
    14:00 +18°C° 0 mm 1 mps 682 mmHg 32%
    15:00 +18°C° 0 mm 1 mps 682 mmHg 34%
    16:00 +18°C° 0 mm 1 mps 682 mmHg 36%
    17:00 +14°C° 0 mm 1 mps 681 mmHg 48%
    18:00 +11°C° 0 mm 1 mps 681 mmHg 60%
    19:00 +8°C° 0 mm 1 mps 681 mmHg 72%
    20:00 +7°C° 0 mm 1 mps 681 mmHg 72%
    21:00 +6°C° 0 mm 2 mps 682 mmHg 71%
    22:00 +5°C° 0 mm 2 mps 683 mmHg 70%
    23:00 +5°C° 0 mm 2 mps 683 mmHg 70%

    7 April, Tuesday

    Time Temperature Precipitation Wind Pressure Humidity
    00:00 +6°C° 0 mm 1 mps 683 mmHg 70%
    01:00 +5°C° 0 mm 1 mps 683 mmHg 70%
    02:00 +5°C° 0 mm 1 mps 683 mmHg 71%
    03:00 +5°C° 0 mm 1 mps 683 mmHg 72%
    04:00 +5°C° 0 mm 1 mps 683 mmHg 73%
    05:00 +6°C° 0 mm 1 mps 684 mmHg 72%
    06:00 +7°C° 0 mm 1 mps 684 mmHg 71%
    07:00 +7°C° 0 mm 0 mps 685 mmHg 70%
    08:00 +10°C° 0 mm 1 mps 685 mmHg 64%
    09:00 +12°C° 0 mm 1 mps 685 mmHg 58%
    10:00 +14°C° 0 mm 1 mps 685 mmHg 51%
    11:00 +15°C° 0 mm 1 mps 685 mmHg 48%
    12:00 +16°C° 0 mm 2 mps 685 mmHg 45%
    13:00 +16°C° 0 mm 2 mps 685 mmHg 42%
    14:00 +16°C° 0 mm 2 mps 685 mmHg 44%
    15:00 +16°C° 0 mm 2 mps 685 mmHg 46%
    16:00 +15°C° 0 mm 2 mps 685 mmHg 48%
    17:00 +13°C° 0 mm 2 mps 684 mmHg 60%
    18:00 +11°C° 0 mm 1 mps 684 mmHg 72%
    19:00 +8°C° 0 mm 1 mps 683 mmHg 85%
    20:00 +8°C° 0 mm 1 mps 684 mmHg 85%
    21:00 +7°C° 0 mm 1 mps 684 mmHg 86%
    22:00 +7°C° 0 mm 1 mps 684 mmHg 87%
    23:00 +6°C° 0 mm 1 mps 684 mmHg 87%
    Show more